Weather Roundup
Issued by NWS

Home | Current Version | Previous Version | Graphics & Text | Print | Product List | Glossary Off
Versions: 1 2 3 4 5 6 7 8 9 10 11 12 13 14 15 16 17 18 19 20 21 22 23 24 25 26 27 28 29 30 31 32 33 34 35 36 37 38 39 40 41 42 43 44 45 46 47 48 49 50

728
NZUS93 KARX 071510
HRRWXR

CURRENT HOURLY OBSERVATIONS ACROSS
MUCH OF THE UPPER MISSISSIPPI VALLEY
NATIONAL WEATHER SERVICE LA CROSSE WI
900 AM CST WED DEC 07 2016


...SOUTHEAST MINNESOTA...


CITY           SKY/WX    TMP DP  RH WIND       PRES   REMARKS
ROCHESTER      LGT SNOW  13   8  81 W18       30.03R WCI  -4
ROCHESTER/MAYO NOT AVBL
WINONA         NOT AVBL
AUSTIN         CLOUDY    12   7  79 W16G23    30.07R WCI  -4
ALBERT LEA     SUNNY     16  10  79 W13G21    30.07S WCI   2
DODGE CENTER   LGT SNOW  12   9  85 W21G26    30.03S WCI  -6
PRESTON        PTSUNNY   12   7  78 W20       30.04S HAZE    WCI  -6
OWATONNA       FLURRIES  14   7  73 W21       30.06R WCI  -4
FARIBAULT      FLURRIES  16   9  73 W14G21    30.06R WCI   1
$$

...ELSEWHERE IN MINNESOTA...


CITY           SKY/WX    TMP DP  RH WIND       PRES   REMARKS
MINNEAPOLIS    NOT AVBL
INTNL FALLS    SNOW      22  19  89 W9        29.63R VSB 1/4 WCI  12
DULUTH         NOT AVBL
RED WING       FLURRIES  18   9  68 W20       30.01R WCI   1
REDWOOD FALLS  NOT AVBL
MANKATO        PTSUNNY   14   7  73 W21       30.09R WCI  -4
WORTHINGTON    NOT AVBL
FAIRMONT       NOT AVBL
$$

...SOUTHWEST WISCONSIN...


CITY           SKY/WX    TMP DP  RH WIND       PRES   REMARKS
LA CROSSE      NOT AVBL
PRAIRIE DU CHI PTSUNNY   17   9  71 W8        30.11S WCI   7
BOSCOBEL       NOT AVBL
LONE ROCK      NOT AVBL
PLATTEVILLE    CLOUDY    18  13  80 W14       30.08R WCI   4
FORT MC COY    CLOUDY    18  12  78 W13G18    30.02S WCI   5
MAUSTON-NEW LI CLOUDY    18  11  75 W14       30.00S WCI   4
VIROQUA        CLOUDY    14   9  80 W15G22    30.02R WCI  -1
WIS DELLS      MOSUNNY   17  11  77 W13       30.01R WCI   4
$$

...ELSEWHERE IN WISCONSIN...


CITY           SKY/WX    TMP DP  RH WIND       PRES   REMARKS
MILWAUKEE      NOT AVBL
MADISON        NOT AVBL
GREEN BAY      NOT AVBL
EAU CLAIRE     NOT AVBL
BLACK RVR FLS  CLOUDY    19  11  73 SW10G17   30.00R WCI   7
MEDFORD        LGT SNOW  14   9  79 SW16G24   29.86R WCI  -2
WAUSAU         NOT AVBL
WIS RAPIDS     NOT AVBL
MARSHFIELD     NOT AVBL
RICE LAKE      FLURRIES  17  11  76 SW12G20   29.91R WCI   4
$$

...NORTHEAST IOWA...


CITY           SKY/WX    TMP DP  RH WIND       PRES   REMARKS
WATERLOO       NOT AVBL
DUBUQUE        NOT AVBL
DECORAH        CLOUDY    14   9  79 W9G16     30.06R WCI   2
MASON CITY     NOT AVBL
CHARLES CITY   PTSUNNY   14   9  79 W15       30.10R WCI  -1
OELWEIN        MOSUNNY   14  10  85 W17       30.11R WCI  -3
$$

...ELSEWHERE IN IOWA...


CITY           SKY/WX    TMP DP  RH WIND       PRES   REMARKS
DES MOINES     NOT AVBL
IOWA CITY      NOT AVBL
FORT DODGE     CLOUDY    12   5  73 NW9G20    30.17R WCI   0
MARSHALLTOWN   NOT AVBL
CEDAR RAPIDS   NOT AVBL
$$

...NORTHERN ILLINOIS...


CITY           SKY/WX    TMP DP  RH WIND       PRES   REMARKS
CHICAGO-OHARE  NOT AVBL
CHICAGO-MIDWAY NOT AVBL
MOLINE         NOT AVBL
ROCKFORD       NOT AVBL
PEORIA         NOT AVBL
$$

NOTE: "FAIR" INDICATES FEW OR NO CLOUDS BELOW 12,000 FEET WITH NO
SIGNIFICANT WEATHER AND/OR OBSTRUCTIONS TO VISIBILITY. WIND
SPEEDS ARE IN MILES-PER-HOUR.




USA.gov is the U.S. government's official web portal to all federal, state and local government web resources and services.